Home > Weather > Santiago > Past weeks

Flag for Chile Weather for the Past 2 Weeks in Santiago, Chile

Now
70 °F

Clear.


Feels Like: 70 °F
Forecast: 49 / 72 °F
Wind: 2 mph from North

Location: Pudahuel

Current Time: Apr 29, 2016 at 3:06:20 PM

Latest Report: Apr 29, 2016 at 2:00 PM


Visibility: 4 mi

Pressure: 30.09 "Hg (28.14 "Hg at 576m altitude)

Humidity: 38%

Dew Point: 43 °F

Location of SantiagoLocation

Historic Weather in Santiago — Graph

°F

Santiago Temperature Yesterday

Maximum temperature yesterday: 66 °F (at 3:00 PM)
Minimum temperature yesterday: 50 °F (at 9:00 AM)
Average temperature yesterday: 58 °F

High & Low Weather Summary for the Past Weeks

 TemperatureHumidityPressure
High73 °F (Apr 21, 4:00 PM)100% (Apr 25, 8:00 AM)30.15 "Hg (Apr 25, 8:00 AM)
Low37 °F (Apr 25, 7:00 AM)12% (Apr 26, 4:00 PM)29.83 "Hg (Apr 15, 6:00 PM)
Average57 °F73%30.02 "Hg
* Reported Apr 14 2:00 PM — Apr 29 2:00 PM, Santiago, Weather by CustomWeather, © 2016

Note: Actual official high and low records may vary slightly from our data, if they occured in-between our weather recording intervals... More about our weather records

Advertising

Santiago Weather History for the Previous 24 Hours

Scroll right to see more
 ConditionsComfort  
Time TempWeatherWind HumidityBarometerVisibility
2:00 PM
Fri, Apr 29
70 °FClear.2 mph38%30.09 "Hg4 mi
1:00 PM66 °FPassing clouds.2 mph46%30.12 "Hg4 mi
12:00 PM63 °FPassing clouds.1 mph56%30.12 "Hg4 mi
11:00 AM59 °FHaze.No wind68%30.12 "Hg2 mi
10:00 AM54 °FScattered clouds.No wind82%30.12 "Hg2 mi
9:00 AM52 °FPassing clouds.3 mph88%30.09 "Hg1 mi
8:00 AM52 °FPartly cloudy.3 mph82%30.09 "Hg2 mi
7:00 AM54 °FPartly cloudy.3 mph82%30.09 "Hg2 mi
6:00 AM55 °FPartly cloudy.No wind77%30.09 "Hg3 mi
5:00 AM55 °FOvercast.No wind77%30.09 "Hg4 mi
4:00 AM55 °FOvercast.5 mph77%30.09 "Hg4 mi
3:00 AM55 °FOvercast.3 mph77%30.12 "Hg4 mi
2:00 AM55 °FOvercast.1 mph77%30.12 "Hg4 mi
1:00 AM57 °FOvercast.3 mph72%30.12 "Hg5 mi
12:00 AM57 °FOvercast.6 mph72%30.12 "HgN/A
11:00 PM
Thu, Apr 28
59 °FPassing clouds.8 mph63%30.12 "HgN/A
10:00 PM59 °FPassing clouds.6 mph63%30.09 "Hg5 mi
9:00 PM61 °FPassing clouds.5 mph59%30.09 "Hg5 mi
8:00 PM61 °FPartly cloudy.5 mph59%30.07 "Hg5 mi
7:00 PM63 °FMore clouds than sun.7 mph56%30.07 "Hg5 mi
6:00 PM64 °FOvercast.6 mph49%30.04 "Hg4 mi
5:00 PM66 °FPartly sunny.6 mph40%30.04 "Hg4 mi
4:00 PM66 °FPartly sunny.6 mph40%30.04 "Hg4 mi
3:00 PM66 °FPartly sunny.2 mph40%30.04 "Hg4 mi
Weather by CustomWeather, © 2016

See weather overviewHow to use our weather pages